VK3AFQ-13 Weather Reports


Display with metric or nautical units.
time (UTC)temp
F
wind
direction
speed
MPH
gust
MPH
rain 1hr
in
rain 24hr
in
rain mn
in
humidity
%
barometer
mb
20260510153103 49 129 1.0 2.0 0.00 0.00 0.00 89 1030.6
20260510151604 49 129 1.0 2.0 0.00 0.00 0.00 89 1030.6
20260510144604 50 129 2.0 3.0 0.00 0.00 0.00 88 1030.3
20260510143104 50 129 1.0 4.0 0.00 0.00 0.00 88 1030.4
20260510141604 51 129 1.0 6.0 0.00 0.00 0.00 87 1030.5
20260510134604 51 129 1.0 6.0 0.00 0.00 0.00 87 1030.6
20260510133104 52 129 1.0 5.0 0.00 0.00 0.00 87 1030.7
20260510131604 52 129 0.0 4.0 0.00 0.00 0.00 86 1030.7
20260510130101 52 129 1.0 4.0 0.00 0.00 0.00 86 1030.7
20260510124603 53 0 0.0 4.0 0.00 0.00 0.00 85 1030.6
20260510123104 54 129 4.0 5.0 0.00 0.00 0.00 84 1030.7
20260510121603 55 129 1.0 5.0 0.00 0.00 0.00 82 1030.7
20260510114604 56 129 1.0 4.0 0.00 0.00 0.00 81 1030.7
20260510113104 57 0 0.0 2.0 0.00 0.00 0.00 80 1030.5
20260510111603 57 0 0.0 3.0 0.00 0.00 0.00 80 1030.4
20260510104604 58 0 0.0 2.0 0.00 0.00 0.00 81 1030.3
20260510103104 58 129 1.0 2.0 0.00 0.00 0.00 82 1030.3
20260510101604 58 129 0.0 1.0 0.00 0.00 0.00 84 1030.0
20260510094604 57 0 0.0 0.0 0.00 0.00 0.00 88 1029.8
20260510093104 57 0 0.0 0.0 0.00 0.00 0.00 85 1029.7
20260510091604 58 0 0.0 0.0 0.00 0.00 0.00 85 1029.6
20260510084603 59 0 0.0 0.0 0.00 0.00 0.00 80 1029.3
20260510083103 61 0 0.0 0.0 0.00 0.00 0.00 78 1029.0
20260510081603 62 0 0.0 0.0 0.00 0.00 0.00 76 1028.9
20260510074604 64 0 0.0 1.0 0.00 0.00 0.00 74 1028.5
20260510073104 65 0 0.0 2.0 0.00 0.00 0.00 72 1028.5
20260510071604 66 0 0.0 2.0 0.00 0.00 0.00 71 1028.6
20260510064604 66 129 0.0 4.0 0.00 0.00 0.00 69 1028.5
20260510063104 67 129 0.0 3.0 0.00 0.00 0.00 68 1028.4
20260510061605 67 129 2.0 6.0 0.00 0.00 0.00 68 1028.4
20260510060101 67 129 3.0 5.0 0.00 0.00 0.00 69 1028.3
20260510054603 67 129 0.0 5.0 0.00 0.00 0.00 68 1028.3
20260510053103 68 129 4.0 6.0 0.00 0.00 0.00 67 1028.4
20260510051604 68 129 0.0 6.0 0.00 0.00 0.00 67 1028.3
20260510044604 68 129 4.0 4.0 0.00 0.00 0.00 68 1028.1
20260510043104 66 0 0.0 5.0 0.00 0.00 0.00 70 1028.4
20260510041604 66 129 3.0 5.0 0.00 0.00 0.00 71 1028.4
20260510034603 65 129 1.0 6.0 0.00 0.00 0.00 73 1028.5
20260510033103 65 129 3.0 6.0 0.00 0.00 0.00 74 1028.6
20260510031604 64 129 1.0 6.0 0.00 0.00 0.00 75 1028.8
20260510024604 63 129 3.0 7.0 0.00 0.00 0.00 77 1029.0
20260510023104 63 129 1.0 9.0 0.00 0.00 0.00 77 1029.1
20260510021604 63 129 4.0 6.0 0.00 0.00 0.00 78 1029.4
20260510014604 62 129 4.0 9.0 0.00 0.00 0.00 79 1029.8
20260510013104 62 129 2.0 10.0 0.00 0.00 0.00 79 1029.9
20260510011604 61 129 4.0 9.0 0.00 0.00 0.00 80 1030.1
20260510004603 59 129 2.0 8.0 0.00 0.00 0.00 84 1030.3
20260510003103 58 129 4.0 7.0 0.00 0.00 0.00 85 1030.3
20260510001603 58 129 2.0 8.0 0.00 0.00 0.00 86 1030.2
20260509234604 55 129 2.0 8.0 0.00 0.00 0.00 90 1030.1
20260509233104 54 129 3.0 8.0 0.00 0.00 0.00 91 1030.1
20260509231603 53 129 3.0 8.0 0.00 0.00 0.00 93 1030.2
20260509224604 51 129 3.0 5.0 0.00 0.00 0.00 96 1029.9
20260509223104 50 129 1.0 2.0 0.00 0.00 0.00 96 1030.0
20260509221604 49 0 0.0 2.0 0.00 0.00 0.00 96 1029.7
20260509214604 47 0 0.0 0.0 0.00 0.00 0.00 96 1029.4
20260509213104 46 0 0.0 1.0 0.00 0.00 0.00 96 1029.3
20260509211604 46 0 0.0 0.0 0.00 0.00 0.00 95 1029.2
20260509204604 47 0 0.0 0.0 0.00 0.00 0.00 95 1029.0
20260509203104 47 0 0.0 1.0 0.00 0.00 0.00 95 1028.9
20260509201603 47 0 0.0 0.0 0.00 0.00 0.00 95 1028.8
20260509194604 47 0 0.0 1.0 0.00 0.00 0.00 95 1028.4
20260509193104 48 0 0.0 1.0 0.00 0.00 0.00 95 1028.1
20260509191604 48 0 0.0 0.0 0.00 0.00 0.00 95 1028.0
20260509184604 47 0 0.0 1.0 0.00 0.00 0.00 95 1028.0
20260509183103 48 0 0.0 0.0 0.00 0.00 0.00 95 1027.8
20260509181603 48 0 0.0 0.0 0.00 0.00 0.00 95 1027.7
20260509174604 49 0 0.0 1.0 0.00 0.00 0.00 95 1027.4
20260509173103 49 0 0.0 1.0 0.00 0.00 0.00 94 1027.4
20260509171604 49 0 0.0 1.0 0.00 0.00 0.00 94 1027.4
20260509164603 49 0 0.0 1.0 0.00 0.00 0.00 94 1027.5
20260509163106 48 0 0.0 1.0 0.00 0.00 0.00 94 1027.5
20260509161603 48 0 0.0 0.0 0.00 0.00 0.00 94 1027.6
20260509154603 49 0 0.0 0.0 0.00 0.00 0.00 94 1027.6